Weather History for KMLE - July, 2014

Change the Weather History Date:

Monday, July 28, 2014

  Actual Average (KOMA) Record (KOMA)
Temperature  
Mean Temperature 68 °F 77 °F  
Max Temperature 77 °F 87 °F 105 °F (1931)
Min Temperature 59 °F 66 °F 48 °F (2013)
Degree Days  
Heating Degree Days 0 0  
Month to date heating degree days 0  
Since 1 June heating degree days 17  
Since 1 July heating degree days 0  
Cooling Degree Days 3 12  
Month to date cooling degree days 332  
Year to date cooling degree days 644  
Since 1 June cooling degree days 562  
Growing Degree Days 18 (Base 50)    
Moisture  
Dew Point 56 °F    
Average Humidity 65    
Maximum Humidity 87    
Minimum Humidity 46    
Precipitation  
Precipitation 0.00 in 0.13 in 1.43 in (1927)
Month to date precipitation 3.45  
Year to date precipitation 18.91  
Snow  
Snow 0.00 in 0.00 in - ()
Month to date snowfall 0.0  
Since 1 July snowfall 0.0  
Snow Depth -    
Sea Level Pressure  
Sea Level Pressure 30.22 in    
Wind  
Wind Speed 6 mph (NW)    
Max Wind Speed 12 mph    
Max Gust Speed 16 mph    
Visibility 10 miles    
Events      
T = Trace of Precipitation, MM = Missing Value Source: NWS Daily Summary

Daily Weather History Graph

Daily Weather History Graph

Search for Another Location

Airport or City:

Trip Planner

Search our weather history database for the weather conditions in past years. The results will help you decide how hot, cold, wet, or windy it might be!

Date:

Astronomy

Jul. 28, 2014 Rise Set
Actual Time 6:16 AM CDT 8:45 PM CDT
Civil Twilight 5:44 AM CDT 9:16 PM CDT
Nautical Twilight 5:05 AM CDT 9:55 PM CDT
Astronomical Twilight 4:21 AM CDT 10:38 PM CDT
Moon 8:00 AM CDT (7/28) 9:25 PM CDT (7/28)
Length of Visible Light 15h 31m
Length of Day
14h 29m
Waxing Crescent, 3% of the Moon is Illuminated
Jul 28
Waxing Crescent
Aug 3
First Quarter
Aug 10
Full
Aug 17
Last Quarter
Aug 25
New

Hourly Weather History & Observations

Time (CDT) Temp. Dew Point Humidity Pressure Visibility Wind Dir Wind Speed Gust Speed Precip Events Conditions
12:15 AM 67.6 °F 57.2 °F 69% 30.20 in 10.0 mi North 4.6 mph - N/A   Clear
12:35 AM 67.1 °F 57.2 °F 70% 30.20 in 10.0 mi North 4.6 mph - N/A   Clear
12:55 AM 66.4 °F 56.3 °F 70% 30.20 in 10.0 mi North 4.6 mph - N/A   Clear
1:15 AM 65.8 °F 56.3 °F 71% 30.20 in 10.0 mi NNW 4.6 mph - N/A   Clear
1:35 AM 65.3 °F 56.7 °F 74% 30.20 in 10.0 mi NNW 5.8 mph - N/A   Clear
1:55 AM 64.8 °F 56.5 °F 74% 30.20 in 10.0 mi NNW 6.9 mph - N/A   Clear
2:15 AM 64.6 °F 55.9 °F 74% 30.20 in 10.0 mi NNW 6.9 mph - N/A   Clear
2:35 AM 64.8 °F 55.8 °F 73% 30.20 in 10.0 mi NW 6.9 mph - N/A   Clear
2:55 AM 64.2 °F 55.6 °F 73% 30.20 in 10.0 mi NNW 5.8 mph - N/A   Clear
3:15 AM 64.0 °F 55.6 °F 74% 30.20 in 10.0 mi NNW 5.8 mph - N/A   Clear
3:35 AM 63.3 °F 55.8 °F 76% 30.21 in 10.0 mi NNW 4.6 mph - N/A   Clear
3:55 AM 62.6 °F 55.8 °F 78% 30.21 in 10.0 mi North 6.9 mph - N/A   Clear
4:15 AM 62.1 °F 55.8 °F 80% 30.21 in 10.0 mi NNW 4.6 mph - N/A   Clear
4:35 AM 61.7 °F 55.8 °F 81% 30.21 in 10.0 mi NNW 5.8 mph - N/A   Clear
4:55 AM 61.7 °F 55.9 °F 81% 30.21 in 10.0 mi NW 5.8 mph - N/A   Clear
5:15 AM 61.7 °F 55.9 °F 81% 30.21 in 10.0 mi NNW 4.6 mph - N/A   Clear
5:35 AM 61.2 °F 55.9 °F 83% 30.21 in 10.0 mi NW 3.5 mph - N/A   Clear
5:55 AM 59.5 °F 55.4 °F 86% 30.22 in 10.0 mi NW 5.8 mph - N/A   Clear
6:15 AM 59.2 °F 55.2 °F 87% 30.22 in 10.0 mi WNW 5.8 mph - N/A   Clear
6:35 AM 59.2 °F 55.4 °F 87% 30.23 in 10.0 mi WNW 5.8 mph - N/A   Clear
6:55 AM 59.5 °F 55.6 °F 87% 30.23 in 10.0 mi Calm Calm - N/A   Clear
7:15 AM 60.8 °F 55.9 °F 84% 30.24 in 10.0 mi WNW 5.8 mph - N/A   Clear
7:35 AM 61.7 °F 55.9 °F 81% 30.25 in 10.0 mi NW 5.8 mph - N/A   Clear
7:55 AM 62.8 °F 55.8 °F 78% 30.26 in 10.0 mi NW 5.8 mph - N/A   Clear
8:15 AM 63.9 °F 55.8 °F 75% 30.25 in 10.0 mi NNW 4.6 mph - N/A   Clear
8:35 AM 64.4 °F 55.6 °F 73% 30.26 in 10.0 mi NNW 6.9 mph - N/A   Mostly Cloudy
8:55 AM 65.3 °F 55.9 °F 72% 30.26 in 10.0 mi NNW 3.5 mph - N/A   Overcast
9:35 AM 65.8 °F 56.3 °F 71% 30.26 in 10.0 mi NNW 5.8 mph - N/A   Overcast
9:55 AM 67.3 °F 57.0 °F 70% 30.26 in 10.0 mi NNE 5.8 mph - N/A   Mostly Cloudy
10:15 AM 68.4 °F 57.0 °F 67% 30.27 in 10.0 mi NNW 11.5 mph 16.1 mph N/A   Scattered Clouds
10:35 AM 68.4 °F 57.4 °F 68% 30.27 in 10.0 mi North 3.5 mph - N/A   Mostly Cloudy
10:55 AM 70.0 °F 57.9 °F 65% 30.27 in 10.0 mi NNW 4.6 mph - N/A   Overcast
11:15 AM 70.5 °F 56.7 °F 61% 30.27 in 10.0 mi North 5.8 mph - N/A   Overcast
11:35 AM 69.8 °F 55.9 °F 61% 30.27 in 10.0 mi WNW 9.2 mph - N/A   Overcast
11:55 AM 70.3 °F 55.6 °F 59% 30.27 in 10.0 mi WNW 6.9 mph - N/A   Overcast
12:15 PM 72.9 °F 56.7 °F 57% 30.26 in 10.0 mi WNW 10.4 mph - N/A   Mostly Cloudy
12:35 PM 73.0 °F 56.8 °F 57% 30.27 in 10.0 mi NW 5.8 mph - N/A   Mostly Cloudy
12:55 PM 73.4 °F 56.1 °F 55% 30.26 in 10.0 mi North 6.9 mph - N/A   Scattered Clouds
1:15 PM 72.1 °F 55.8 °F 56% 30.26 in 10.0 mi NNW 5.8 mph - N/A   Mostly Cloudy
1:35 PM 72.9 °F 55.0 °F 53% 30.25 in 10.0 mi NNW 6.9 mph - N/A   Mostly Cloudy
1:55 PM 74.7 °F 56.8 °F 54% 30.25 in 10.0 mi NW 9.2 mph - N/A   Mostly Cloudy
2:15 PM 74.1 °F 56.3 °F 54% 30.25 in 10.0 mi NW 6.9 mph - N/A   Scattered Clouds
2:35 PM 74.8 °F 56.3 °F 52% 30.24 in 10.0 mi NW 5.8 mph - N/A   Scattered Clouds
2:55 PM 75.6 °F 54.9 °F 48% 30.23 in 10.0 mi WNW 6.9 mph - N/A   Scattered Clouds
3:15 PM 75.9 °F 55.9 °F 50% 30.23 in 10.0 mi NW 6.9 mph - N/A   Mostly Cloudy
3:35 PM 75.6 °F 55.9 °F 50% 30.23 in 10.0 mi North 5.8 mph - N/A   Mostly Cloudy
3:55 PM 75.2 °F 55.9 °F 51% 30.22 in 10.0 mi North 4.6 mph - N/A   Scattered Clouds
4:15 PM 77.0 °F 56.1 °F 48% 30.22 in 10.0 mi NW 6.9 mph - N/A   Scattered Clouds
4:35 PM 77.0 °F 56.7 °F 49% 30.21 in 10.0 mi WNW 9.2 mph - N/A   Scattered Clouds
4:55 PM 76.8 °F 56.5 °F 49% 30.21 in 10.0 mi NW 9.2 mph - N/A   Mostly Cloudy
5:15 PM 77.7 °F 55.8 °F 47% 30.20 in 10.0 mi NW 8.1 mph - N/A   Scattered Clouds
5:35 PM 75.9 °F 54.9 °F 48% 30.19 in 10.0 mi NNW 6.9 mph - N/A   Scattered Clouds
5:55 PM 77.0 °F 55.0 °F 47% 30.19 in 10.0 mi NNW 5.8 mph - N/A   Scattered Clouds
6:15 PM 76.5 °F 54.3 °F 46% 30.19 in 10.0 mi NW 5.8 mph - N/A   Scattered Clouds
6:35 PM 77.0 °F 55.0 °F 47% 30.18 in 10.0 mi WNW 8.1 mph - N/A   Scattered Clouds
6:55 PM 77.0 °F 54.5 °F 46% 30.18 in 10.0 mi WNW 8.1 mph - N/A   Scattered Clouds
7:15 PM 76.3 °F 54.1 °F 46% 30.18 in 10.0 mi NW 9.2 mph - N/A   Clear
7:35 PM 76.1 °F 53.8 °F 46% 30.18 in 10.0 mi NW 6.9 mph - N/A   Clear
7:55 PM 75.9 °F 53.6 °F 46% 30.18 in 10.0 mi NNW 4.6 mph - N/A   Clear
8:15 PM 75.2 °F 54.0 °F 47% 30.18 in 10.0 mi NNW 4.6 mph - N/A   Clear
8:55 PM 73.2 °F 55.2 °F 53% 30.18 in 10.0 mi NNW 3.5 mph - N/A   Clear
9:15 PM 71.1 °F 55.6 °F 58% 30.18 in 10.0 mi NW 4.6 mph - N/A   Clear
9:35 PM 70.9 °F 55.8 °F 59% 30.18 in 10.0 mi NW 3.5 mph - N/A   Clear
9:55 PM 70.3 °F 56.3 °F 61% 30.18 in 10.0 mi NW 4.6 mph - N/A   Clear
10:15 PM 68.9 °F 56.7 °F 65% 30.18 in 10.0 mi Calm Calm - N/A   Clear
10:35 PM 67.5 °F 56.1 °F 67% 30.19 in 10.0 mi WNW 4.6 mph - N/A   Clear
10:55 PM 66.6 °F 56.3 °F 69% 30.19 in 10.0 mi West 4.6 mph - N/A   Clear
11:15 PM 65.5 °F 56.8 °F 74% 30.19 in 10.0 mi Calm Calm - N/A   Clear
11:35 PM 65.5 °F 56.1 °F 72% 30.19 in 10.0 mi NW 3.5 mph - N/A   Clear
11:55 PM 64.2 °F 56.1 °F 75% 30.20 in 10.0 mi Calm Calm - N/A   Clear